When you browse on this site, cookies collect data to enhance your experience and personalize the content and advertising you see.
Visit our Privacy Policy to learn more. By continuing to use the site, you agree to this use of cookies and data.
  • In Hungary
  • List of Countries
  • For 7 days
  • Water Temperature
  • Weather Map
  • News
  • Weather Widgets
  • user-avatar
    Login

    Hourly Weather Carnot

    Today, 17 November, Sunday

    Time Temperature Precipitation Wind Pressure Humidity
    00:00 +25°C° 0 mm 1 mps 708 mmHg 56%
    01:00 +22°C° 0 mm 0 mps 708 mmHg 56%
    02:00 +22°C° 0 mm 0 mps 707 mmHg 57%
    03:00 +21°C° 0 mm 0 mps 707 mmHg 59%
    04:00 +21°C° 0 mm 0 mps 707 mmHg 60%
    05:00 +21°C° 0 mm 0 mps 707 mmHg 61%
    06:00 +22°C° 0 mm 0 mps 708 mmHg 62%
    07:00 +22°C° 0 mm 0 mps 709 mmHg 63%
    08:00 +25°C° 0 mm 0 mps 709 mmHg 55%
    09:00 +29°C° 0 mm 0 mps 709 mmHg 48%
    10:00 +32°C° 0 mm 0 mps 709 mmHg 40%
    11:00 +33°C° 0 mm 0 mps 709 mmHg 36%
    12:00 +34°C° 0 mm 0 mps 708 mmHg 33%
    13:00 +35°C° 0 mm 0 mps 708 mmHg 30%
    14:00 +34°C° 0 mm 0 mps 707 mmHg 31%
    15:00 +33°C° 0 mm 0 mps 707 mmHg 33%
    16:00 +33°C° 0 mm 0 mps 706 mmHg 34%
    17:00 +32°C° 0 mm 1 mps 706 mmHg 40%
    18:00 +30°C° 0 mm 1 mps 707 mmHg 46%
    19:00 +27°C° 0 mm 1 mps 707 mmHg 51%
    20:00 +26°C° 0 mm 1 mps 708 mmHg 55%
    21:00 +24°C° 0 mm 0 mps 708 mmHg 58%
    22:00 +23°C° 0 mm 0 mps 708 mmHg 61%
    23:00 +22°C° 0 mm 0 mps 708 mmHg 62%

    Tomorrow, 18 November, Monday

    Time Temperature Precipitation Wind Pressure Humidity
    00:00 +22°C° 0 mm 0 mps 708 mmHg 64%
    01:00 +23°C° 0 mm 1 mps 708 mmHg 65%
    02:00 +21°C° 0 mm 0 mps 708 mmHg 67%
    03:00 +20°C° 0 mm 0 mps 708 mmHg 70%
    04:00 +19°C° 0 mm 0 mps 707 mmHg 73%
    05:00 +20°C° 0 mm 0 mps 708 mmHg 72%
    06:00 +21°C° 0 mm 0 mps 709 mmHg 72%
    07:00 +21°C° 0 mm 0 mps 709 mmHg 72%
    08:00 +26°C° 0 mm 1 mps 709 mmHg 63%
    09:00 +29°C° 0 mm 1 mps 709 mmHg 55%
    10:00 +32°C° 0 mm 1 mps 710 mmHg 46%
    11:00 +34°C° 0 mm 1 mps 709 mmHg 41%
    12:00 +36°C° 0 mm 1 mps 709 mmHg 36%
    13:00 +35°C° 0 mm 0 mps 708 mmHg 31%
    14:00 +34°C° 0 mm 0 mps 708 mmHg 33%
    15:00 +35°C° 0 mm 1 mps 707 mmHg 34%
    16:00 +34°C° 0 mm 1 mps 707 mmHg 36%
    17:00 +32°C° 0 mm 1 mps 707 mmHg 41%
    18:00 +29°C° 0 mm 1 mps 707 mmHg 47%
    19:00 +25°C° 0 mm 0 mps 708 mmHg 52%
    20:00 +24°C° 0 mm 0 mps 708 mmHg 55%
    21:00 +24°C° 0 mm 0 mps 709 mmHg 57%
    22:00 +23°C° 0 mm 0 mps 709 mmHg 60%
    23:00 +23°C° 0 mm 0 mps 709 mmHg 61%

    Day after tomorrow, 19 November, Tuesday

    Time Temperature Precipitation Wind Pressure Humidity
    00:00 +23°C° 0 mm 0 mps 709 mmHg 61%
    01:00 +22°C° 0 mm 0 mps 709 mmHg 62%
    02:00 +22°C° 0 mm 0 mps 709 mmHg 64%
    03:00 +21°C° 0 mm 0 mps 709 mmHg 67%
    04:00 +21°C° 0 mm 0 mps 708 mmHg 69%
    05:00 +21°C° 0 mm 0 mps 709 mmHg 68%
    06:00 +22°C° 0 mm 0 mps 709 mmHg 68%
    07:00 +22°C° 0 mm 0 mps 710 mmHg 67%
    08:00 +25°C° 0 mm 0 mps 710 mmHg 61%
    09:00 +29°C° 0 mm 1 mps 710 mmHg 55%
    10:00 +32°C° 0 mm 1 mps 710 mmHg 48%
    11:00 +34°C° 0 mm 1 mps 710 mmHg 43%
    12:00 +35°C° 0 mm 1 mps 710 mmHg 38%
    13:00 +37°C° 0 mm 1 mps 709 mmHg 33%
    14:00 +36°C° 0 mm 1 mps 709 mmHg 35%
    15:00 +35°C° 0 mm 1 mps 708 mmHg 37%
    16:00 +35°C° 0 mm 2 mps 707 mmHg 38%
    17:00 +32°C° 0 mm 2 mps 708 mmHg 47%
    18:00 +29°C° 0 mm 1 mps 708 mmHg 57%
    19:00 +27°C° 0 mm 1 mps 708 mmHg 66%
    20:00 +27°C° 0 mm 1 mps 709 mmHg 69%
    21:00 +26°C° 0 mm 1 mps 709 mmHg 72%
    22:00 +23°C° 0 mm 0 mps 710 mmHg 76%
    23:00 +23°C° 0 mm 0 mps 709 mmHg 78%

    20 November, Wednesday

    Time Temperature Precipitation Wind Pressure Humidity
    00:00 +23°C° 0 mm 0 mps 709 mmHg 79%
    01:00 +22°C° 0 mm 0 mps 709 mmHg 81%
    02:00 +22°C° 0 mm 0 mps 709 mmHg 83%
    03:00 +22°C° 0 mm 0 mps 709 mmHg 86%
    04:00 +21°C° 0 mm 0 mps 709 mmHg 88%
    05:00 +22°C° 0 mm 0 mps 709 mmHg 86%
    06:00 +23°C° 0 mm 0 mps 709 mmHg 84%
    07:00 +23°C° 0 mm 0 mps 710 mmHg 83%
    08:00 +26°C° 0 mm 0 mps 710 mmHg 72%
    09:00 +29°C° 0 mm 0 mps 710 mmHg 62%
    10:00 +34°C° 0 mm 1 mps 711 mmHg 51%
    11:00 +35°C° 0 mm 1 mps 710 mmHg 45%
    12:00 +36°C° 0 mm 1 mps 709 mmHg 39%
    13:00 +37°C° 0 mm 1 mps 709 mmHg 33%
    14:00 +36°C° 0 mm 1 mps 708 mmHg 36%
    15:00 +35°C° 0 mm 1 mps 708 mmHg 39%
    16:00 +33°C° 0 mm 1 mps 707 mmHg 41%
    17:00 +32°C° 0 mm 1 mps 707 mmHg 44%
    18:00 +31°C° 0 mm 1 mps 707 mmHg 47%
    19:00 +29°C° 0 mm 1 mps 708 mmHg 50%
    20:00 +26°C° 0 mm 0 mps 708 mmHg 54%
    21:00 +25°C° 0 mm 0 mps 708 mmHg 58%
    22:00 +24°C° 0 mm 0 mps 709 mmHg 62%
    23:00 +24°C° 0 mm 0 mps 708 mmHg 63%

    21 November, Thursday

    Time Temperature Precipitation Wind Pressure Humidity
    00:00 +24°C° 0 mm 0 mps 708 mmHg 64%
    01:00 +23°C° 0 mm 0 mps 708 mmHg 66%
    02:00 +23°C° 0 mm 0 mps 708 mmHg 69%
    03:00 +22°C° 0 mm 0 mps 708 mmHg 72%
    04:00 +21°C° 0 mm 0 mps 708 mmHg 75%
    05:00 +22°C° 0 mm 0 mps 708 mmHg 74%
    06:00 +23°C° 0 mm 0 mps 709 mmHg 73%
    07:00 +23°C° 0 mm 0 mps 709 mmHg 72%
    08:00 +27°C° 0 mm 0 mps 710 mmHg 63%
    09:00 +30°C° 0 mm 0 mps 710 mmHg 53%
    10:00 +33°C° 0 mm 0 mps 710 mmHg 44%
    11:00 +36°C° 0 mm 1 mps 709 mmHg 39%
    12:00 +37°C° 0 mm 1 mps 709 mmHg 34%
    13:00 +39°C° 0 mm 1 mps 708 mmHg 29%
    14:00 +37°C° 0 mm 1 mps 708 mmHg 30%
    15:00 +37°C° 0 mm 2 mps 707 mmHg 31%
    16:00 +36°C° 0 mm 2 mps 707 mmHg 32%
    17:00 +33°C° 0 mm 1 mps 707 mmHg 36%
    18:00 +30°C° 0 mm 1 mps 707 mmHg 41%
    19:00 +28°C° 0 mm 1 mps 707 mmHg 45%
    20:00 +27°C° 0 mm 1 mps 708 mmHg 46%
    21:00 +26°C° 0 mm 1 mps 708 mmHg 47%
    22:00 +26°C° 0 mm 1 mps 708 mmHg 48%
    23:00 +25°C° 0 mm 1 mps 708 mmHg 50%

    22 November, Friday

    Time Temperature Precipitation Wind Pressure Humidity
    00:00 +23°C° 0 mm 0 mps 708 mmHg 52%
    01:00 +22°C° 0 mm 0 mps 708 mmHg 54%
    02:00 +21°C° 0 mm 0 mps 708 mmHg 55%
    03:00 +21°C° 0 mm 0 mps 708 mmHg 55%
    04:00 +21°C° 0 mm 0 mps 707 mmHg 56%
    05:00 +21°C° 0 mm 0 mps 708 mmHg 56%
    06:00 +22°C° 0 mm 0 mps 709 mmHg 55%
    07:00 +23°C° 0 mm 0 mps 709 mmHg 55%
    08:00 +26°C° 0 mm 0 mps 710 mmHg 49%
    09:00 +30°C° 0 mm 0 mps 710 mmHg 43%
    10:00 +33°C° 0 mm 0 mps 710 mmHg 37%
    11:00 +34°C° 0 mm 0 mps 709 mmHg 33%
    12:00 +37°C° 0 mm 1 mps 709 mmHg 29%
    13:00 +37°C° 0 mm 1 mps 708 mmHg 24%
    14:00 +37°C° 0 mm 1 mps 707 mmHg 25%
    15:00 +36°C° 0 mm 1 mps 707 mmHg 26%
    16:00 +35°C° 0 mm 1 mps 706 mmHg 26%
    17:00 +33°C° 0 mm 1 mps 707 mmHg 31%
    18:00 +30°C° 0 mm 1 mps 707 mmHg 35%
    19:00 +25°C° 0 mm 0 mps 707 mmHg 39%
    20:00 +24°C° 0 mm 0 mps 707 mmHg 41%
    21:00 +23°C° 0 mm 0 mps 707 mmHg 43%
    22:00 +23°C° 0 mm 0 mps 708 mmHg 45%
    23:00 +22°C° 0 mm 0 mps 708 mmHg 48%
    Show more